This is the latest recevied weather packets stored in our database for station/object M0JUI-1. If no packets are shown the sender has not sent any weather packets the latest 10 day(s).
| Time | Temp. | Humidity | Pressure | Rain* | Wind** | Luminosity | Snow |
|---|---|---|---|---|---|---|---|
| 1788012872 | 15° C | 20% | 1001.8 hPa | 1.02 mm | - | 90 W/m² | - |
| 1788012572 | 14.44° C | 19% | 1001.6 hPa | 1.27 mm | - | 72 W/m² | - |
| 1788012272 | 14.44° C | 19% | 1001.7 hPa | 1.52 mm | - | 59 W/m² | - |
| 1788011960 | 14.44° C | 19% | 1001.7 hPa | 1.78 mm | - | 40 W/m² | - |
| 1788011661 | 14.44° C | 19% | 1001.9 hPa | 1.78 mm | - | 65 W/m² | - |
| 1788011354 | 14.44° C | 19% | 1001.9 hPa | 2.29 mm | - | 70 W/m² | - |
| 1788011048 | 14.44° C | 18% | 1001.8 hPa | 2.29 mm | - | 47 W/m² | - |
| 1788010753 | 14.44° C | 18% | 1002 hPa | 2.29 mm | - | 48 W/m² | - |
| 1788010448 | 14.44° C | 18% | 1002 hPa | 2.54 mm | - | 42 W/m² | - |
| 1788010137 | 14.44° C | 18% | 1002 hPa | 2.79 mm | - | 49 W/m² | - |
| 1788009836 | 14.44° C | 17% | 1002 hPa | 2.79 mm | - | 85 W/m² | - |
| 1788009537 | 14.44° C | 17% | 1002 hPa | 2.54 mm | - | 85 W/m² | - |
| 1788009236 | 14.44° C | 16% | 1002.2 hPa | 2.29 mm | - | 95 W/m² | - |
| 1788008936 | 14.44° C | 16% | 1002.1 hPa | 2.03 mm | - | 75 W/m² | - |
| 1788008636 | 14.44° C | 15% | 1002.4 hPa | 1.78 mm | - | 107 W/m² | - |
| 1788008337 | 14.44° C | 14% | 1002.2 hPa | 1.52 mm | - | 96 W/m² | - |
| 1788008038 | 14.44° C | 14% | 1002.4 hPa | 1.52 mm | - | 75 W/m² | - |
| 1788007736 | 14.44° C | 13% | 1002.5 hPa | 1.27 mm | - | 84 W/m² | - |
| 1788007437 | 14.44° C | 12% | 1002.4 hPa | 1.02 mm | - | 81 W/m² | - |
| 1788007136 | 14.44° C | 12% | 1002.4 hPa | 1.27 mm | - | 79 W/m² | - |
| 1788006836 | 14.44° C | 11% | 1002.7 hPa | 1.02 mm | - | 66 W/m² | - |
| 1788006536 | 15° C | 10% | 1002.5 hPa | 0.76 mm | - | 98 W/m² | - |
| 1788006236 | 15° C | 9% | 1002.5 hPa | 1.02 mm | - | 96 W/m² | - |
| 1788005942 | 15° C | 9% | 1002.6 hPa | 0.76 mm | - | 119 W/m² | - |
| 1788005625 | 15° C | 8% | 1002.6 hPa | 1.02 mm | - | 147 W/m² | - |
* Rain latest hour (hover to see other rain measurements)
** Current wind speed in m/s (hover to see current wind gust speed)